Flag for Burundi Weather past 2 weeks in Muyinga, Burundi

Now
64 °F

Passing clouds.


Feels Like: 64 °F
Forecast: 60 / 72 °F
Wind: No wind

Location: Kigali Airport

Current Time: Sep 3, 2015 at 9:19:51 PM

Latest Report: Sep 3, 2015 at 9:00 PM


Visibility: N/A

Pressure: 30.21 "Hg (24.60 "Hg at 1749m altitude)

Humidity: 100%

Dew point: 64 °F

Location of MuyingaLocation

Historic Weather in Muyinga — Graph

°F

Muyinga temperature yesterday

Maximum temperature yesterday: 88 °F (at 2:30 PM)
Minimum temperature yesterday: 63 °F (at 5:00 AM)
Average temperature yesterday: 73 °F

Past Weeks' High & Low Weather Summary

 TemperatureHumidityPressure
High90 °F (Aug 20, 3:30 PM)100% (Aug 31, 11:00 PM)30.27 "Hg (Aug 31, 11:00 PM)
Low57 °F (Aug 24, 5:30 AM)23% (Aug 24, 5:00 PM)29.98 "Hg (Aug 20, 5:00 PM)
Average74 °F56%30.12 "Hg
* Reported Aug 19 8:00 PM — Sep 3 8:30 PM, Muyinga, Weather by CustomWeather, © 2015

Note: Actual official high and low records may vary slightly from our data, if they occured in-between our weather recording intervals... More about our weather records

Advertising

Muyinga weather history for previous 24 hours

 ConditionsComfort  
Time TempWeatherWind HumidityBarometerVisibility
8:30 PM
Thu, Sep 3
64 °FPassing clouds.3 mph100%30.21 "HgN/A
8:00 PM64 °FLight rain. Passing clouds.3 mph100%30.21 "Hg5 mi
7:30 PM64 °FLight rain. Passing clouds.No wind100%30.18 "Hg5 mi
7:00 PM66 °FRain. Partly cloudy.3 mph94%30.15 "Hg5 mi
6:30 PM70 °FRain. Partly cloudy.No wind78%30.15 "HgN/A
6:00 PM70 °FBroken clouds.9 mph78%30.12 "HgN/A
5:30 PM73 °FLight rain. Partly sunny.3 mph65%30.09 "HgN/A
5:00 PM73 °FPartly sunny.12 mph69%30.04 "HgN/A
4:30 PM73 °FThunderstorms. Cloudy.5 mph69%30.04 "HgN/A
4:00 PM72 °FThunderstorms. Cloudy.5 mph78%30.04 "HgN/A
3:30 PM72 °FLight rain. Partly sunny.9 mph78%30.04 "HgN/A
3:00 PM72 °FPartly sunny.10 mph78%30.07 "HgN/A
2:30 PM79 °FPartly sunny.9 mph58%30.07 "HgN/A
2:00 PM79 °FPartly sunny.10 mph61%30.09 "HgN/A
1:30 PM84 °FPartly sunny.3 mph48%N/AN/A
1:00 PM82 °FPartly sunny.5 mph51%N/AN/A
12:30 PM82 °FPartly sunny.5 mph55%N/AN/A
12:00 PM81 °FScattered clouds.5 mph54%N/AN/A
11:30 AM81 °FScattered clouds.3 mph54%N/AN/A
10:30 AM77 °FScattered clouds.3 mph65%30.18 "HgN/A
10:00 AM75 °FScattered clouds.3 mph74%30.18 "HgN/A
9:00 AM73 °FScattered clouds.No wind78%30.21 "HgN/A
8:30 AM73 °FPassing clouds.No wind83%30.18 "HgN/A
8:00 AM70 °FPassing clouds.No wind88%30.18 "HgN/A
7:30 AM66 °FPassing clouds.No wind100%30.18 "HgN/A
7:00 AM64 °FScattered clouds.No wind100%30.15 "HgN/A
6:30 AM64 °FScattered clouds.No wind100%30.15 "HgN/A
5:30 AM64 °FPassing clouds.No wind100%30.12 "HgN/A
4:30 AM66 °FPassing clouds.No wind100%30.12 "HgN/A
4:00 AM66 °FPassing clouds.No wind100%30.12 "HgN/A
3:30 AM66 °FPassing clouds.No wind100%30.12 "HgN/A
3:00 AM66 °FPassing clouds.No wind100%30.12 "HgN/A
2:30 AM66 °FPassing clouds.No wind100%30.12 "HgN/A
2:00 AM66 °FPassing clouds.No wind100%30.12 "HgN/A
1:30 AM66 °FPassing clouds.No wind100%30.15 "HgN/A
1:00 AM66 °FPassing clouds.No wind100%30.15 "HgN/A
12:30 AM68 °FPassing clouds.3 mph94%30.15 "HgN/A
12:00 AM68 °FPassing clouds.No wind94%30.18 "HgN/A
11:30 PM
Wed, Sep 2
68 °FPassing clouds.3 mph94%30.18 "HgN/A
11:00 PM68 °FPassing clouds.5 mph94%30.18 "HgN/A
10:30 PM68 °FPassing clouds.3 mph94%30.18 "HgN/A
10:00 PM68 °FPassing clouds.3 mph100%30.18 "HgN/A
9:30 PM68 °FPassing clouds.6 mph94%30.15 "Hg5 mi
9:00 PM68 °FPassing clouds.5 mph94%30.12 "Hg5 mi
Weather by CustomWeather, © 2015

See weather overviewHow to use our weather pages